N43CB KBNA-KBHM

Flight info

Callsign N43CB
Flight time 0h 40m
Altitude 29000
Route FLAME4 GENDE NULLS
Aircraft C25C/M-VGDW/C

Departure

Time 2026-05-06 00:50
Airport Nashville International Airport (KBNA)

Arrival

Time 2026-05-06 01:30
Airport Birmingham-Shuttlesworth International Airport (KBHM)
Time Latitude Longitude Altitude Speed Heading
2026-05-06 00:32 36.12112 -86.67397 582 ft 0 kts 175°
2026-05-06 00:41 36.12107 -86.67393 582 ft 3 kts 138°
2026-05-06 00:41 36.12114 -86.67382 582 ft 1 kts 339°
2026-05-06 00:42 36.12118 -86.67385 582 ft 0 kts 330°
2026-05-06 00:42 36.12132 -86.67394 582 ft 6 kts 336°
2026-05-06 00:43 36.12198 -86.67398 584 ft 13 kts
2026-05-06 00:43 36.12283 -86.67418 583 ft 13 kts 313°
2026-05-06 00:43 36.12349 -86.67505 583 ft 14 kts 314°
2026-05-06 00:43 36.12410 -86.67584 583 ft 4 kts 313°
2026-05-06 00:44 36.12410 -86.67585 583 ft 0 kts 313°
2026-05-06 00:44 36.12421 -86.67599 582 ft 7 kts 314°
2026-05-06 00:44 36.12422 -86.67680 580 ft 12 kts 212°
2026-05-06 00:45 36.12362 -86.67709 579 ft 7 kts 216°
2026-05-06 00:45 36.12355 -86.67752 579 ft 4 kts 288°
2026-05-06 00:45 36.12363 -86.67783 578 ft 0 kts 287°
2026-05-06 00:46 36.12378 -86.67838 577 ft 10 kts 288°
2026-05-06 00:46 36.12385 -86.67865 577 ft 0 kts 288°
2026-05-06 00:48 36.12397 -86.67908 576 ft 10 kts 289°
2026-05-06 00:48 36.12373 -86.67981 576 ft 10 kts 210°
2026-05-06 00:48 36.12341 -86.67997 576 ft 0 kts 198°
2026-05-06 00:49 36.12324 -86.68003 575 ft 12 kts 198°
2026-05-06 00:49 36.12114 -86.68088 574 ft 56 kts 198°
2026-05-06 00:49 36.11528 -86.68324 583 ft 119 kts 198°
2026-05-06 00:49 36.10703 -86.68682 884 ft 128 kts 199°
2026-05-06 00:50 36.09830 -86.69055 1293 ft 143 kts 192°
2026-05-06 00:50 36.08722 -86.69370 1666 ft 184 kts 194°
2026-05-06 00:50 36.07371 -86.69856 2311 ft 209 kts 198°
2026-05-06 00:50 36.05974 -86.70404 3486 ft 214 kts 199°
2026-05-06 00:51 36.04534 -86.70954 4535 ft 219 kts 201°
2026-05-06 00:51 36.03062 -86.71515 5581 ft 226 kts 203°
2026-05-06 00:51 36.01523 -86.72104 6433 ft 236 kts 204°
2026-05-06 00:51 35.99932 -86.72705 7360 ft 241 kts 203°
2026-05-06 00:52 35.98313 -86.73322 8315 ft 246 kts 204°
2026-05-06 00:52 35.96662 -86.73952 9254 ft 251 kts 204°
2026-05-06 00:52 35.94969 -86.74591 10113 ft 257 kts 203°
2026-05-06 00:52 35.93150 -86.74857 10986 ft 269 kts 189°
2026-05-06 00:53 35.91273 -86.74956 11876 ft 271 kts 191°
2026-05-06 00:53 35.89377 -86.75114 12714 ft 275 kts 192°
2026-05-06 00:53 35.87473 -86.75256 13538 ft 280 kts 191°
2026-05-06 00:53 35.85486 -86.75389 14300 ft 284 kts 191°
2026-05-06 00:54 35.83521 -86.75526 15008 ft 289 kts 191°
2026-05-06 00:54 35.81502 -86.75670 15661 ft 293 kts 192°
2026-05-06 00:54 35.79449 -86.75816 16251 ft 297 kts 192°
2026-05-06 00:54 35.77369 -86.75960 16830 ft 301 kts 192°
2026-05-06 00:55 35.75263 -86.76107 17339 ft 305 kts 192°
2026-05-06 00:55 35.73132 -86.76258 17756 ft 309 kts 192°
2026-05-06 00:55 35.70976 -86.76411 18181 ft 311 kts 192°
2026-05-06 00:55 35.68802 -86.76562 18555 ft 314 kts 192°
2026-05-06 00:56 35.66610 -86.76715 18912 ft 317 kts 192°
2026-05-06 00:56 35.64400 -86.76871 19286 ft 319 kts 192°
2026-05-06 00:56 35.62178 -86.77027 19645 ft 322 kts 192°
2026-05-06 00:56 35.59937 -86.77184 20013 ft 324 kts 192°
2026-05-06 00:57 35.57679 -86.77342 20374 ft 326 kts 192°
2026-05-06 00:57 35.55404 -86.77501 20725 ft 329 kts 192°
2026-05-06 00:57 35.53113 -86.77661 21075 ft 331 kts 192°
2026-05-06 00:57 35.50803 -86.77814 21421 ft 333 kts 192°
2026-05-06 00:58 35.48483 -86.77968 21628 ft 335 kts 192°
2026-05-06 00:58 35.46166 -86.78121 21943 ft 331 kts 192°
2026-05-06 00:58 35.43865 -86.78277 22179 ft 333 kts 192°
2026-05-06 00:58 35.41547 -86.78437 22516 ft 334 kts 192°
2026-05-06 00:59 35.39214 -86.78594 22835 ft 337 kts 192°
2026-05-06 00:59 35.36870 -86.78750 23152 ft 339 kts 192°
2026-05-06 00:59 35.34511 -86.78908 23442 ft 340 kts 192°
2026-05-06 00:59 35.32162 -86.79062 23848 ft 337 kts 192°
2026-05-06 01:00 35.29817 -86.79221 24115 ft 339 kts 192°
2026-05-06 01:00 35.27458 -86.79382 24386 ft 340 kts 193°
2026-05-06 01:00 35.25120 -86.79538 24655 ft 342 kts 193°
2026-05-06 01:00 35.22725 -86.79694 25115 ft 337 kts 193°
2026-05-06 01:01 35.20374 -86.79852 25382 ft 339 kts 193°
2026-05-06 01:01 35.18042 -86.80012 25655 ft 341 kts 193°
2026-05-06 01:01 35.15664 -86.80172 25912 ft 343 kts 193°
2026-05-06 01:01 35.13241 -86.80332 26207 ft 345 kts 194°
2026-05-06 01:02 35.10840 -86.80491 26464 ft 346 kts 194°
2026-05-06 01:02 35.08486 -86.80644 26920 ft 341 kts 194°
2026-05-06 01:02 35.06105 -86.80805 27166 ft 344 kts 194°
2026-05-06 01:02 35.03709 -86.80970 27426 ft 346 kts 195°
2026-05-06 01:03 35.01305 -86.81129 27693 ft 347 kts 194°
2026-05-06 01:03 34.98882 -86.81288 27947 ft 349 kts 195°
2026-05-06 01:03 34.97273 -86.81395 28101 ft 350 kts 195°
2026-05-06 01:04 34.92289 -86.81742 27800 ft 377 kts 194°
2026-05-06 01:04 34.89610 -86.81927 27394 ft 395 kts 193°
2026-05-06 01:04 34.86799 -86.82105 26869 ft 414 kts 192°
2026-05-06 01:04 34.83865 -86.82292 26312 ft 429 kts 192°
2026-05-06 01:05 34.80895 -86.82482 25744 ft 423 kts 192°
2026-05-06 01:05 34.78027 -86.82886 25190 ft 410 kts 196°
2026-05-06 01:05 34.75214 -86.83321 24651 ft 405 kts 195°
2026-05-06 01:05 34.72427 -86.83722 24120 ft 401 kts 195°
2026-05-06 01:06 34.69661 -86.84125 23592 ft 399 kts 195°
2026-05-06 01:06 34.66920 -86.84539 23020 ft 395 kts 195°
2026-05-06 01:06 34.64209 -86.84945 22496 ft 391 kts 195°
2026-05-06 01:06 34.61524 -86.85341 21982 ft 387 kts 195°
2026-05-06 01:07 34.58867 -86.85735 21475 ft 383 kts 195°
2026-05-06 01:07 34.56233 -86.86126 20972 ft 380 kts 195°
2026-05-06 01:07 34.53620 -86.86514 20471 ft 377 kts 195°
2026-05-06 01:07 34.51021 -86.86900 19977 ft 375 kts 195°
2026-05-06 01:08 34.48435 -86.87282 19480 ft 373 kts 195°
2026-05-06 01:08 34.45861 -86.87662 19002 ft 372 kts 195°
2026-05-06 01:08 34.43300 -86.88042 18513 ft 370 kts 195°
2026-05-06 01:08 34.40751 -86.88420 18001 ft 368 kts 195°
2026-05-06 01:09 34.38214 -86.88793 17504 ft 366 kts 195°
2026-05-06 01:09 34.35698 -86.89164 17024 ft 363 kts 195°
2026-05-06 01:09 34.33198 -86.89534 16547 ft 361 kts 195°
2026-05-06 01:09 34.30710 -86.89902 16107 ft 359 kts 195°
2026-05-06 01:10 34.28234 -86.90265 15644 ft 358 kts 194°
2026-05-06 01:10 34.25763 -86.90630 15173 ft 358 kts 194°
2026-05-06 01:10 34.23294 -86.90994 14712 ft 357 kts 194°
2026-05-06 01:10 34.20828 -86.91356 14264 ft 357 kts 194°
2026-05-06 01:11 34.18365 -86.91717 13817 ft 356 kts 193°
2026-05-06 01:11 34.15903 -86.92080 13329 ft 356 kts 193°
2026-05-06 01:11 34.13446 -86.92440 12835 ft 355 kts 193°
2026-05-06 01:11 34.11002 -86.92798 12365 ft 353 kts 193°
2026-05-06 01:12 34.08699 -86.93121 11901 ft 298 kts 193°
2026-05-06 01:12 34.06678 -86.93410 11427 ft 292 kts 194°
2026-05-06 01:12 34.04670 -86.93729 11069 ft 288 kts 194°
2026-05-06 01:12 34.02699 -86.94019 11000 ft 283 kts 193°
2026-05-06 01:13 34.00748 -86.94285 10994 ft 282 kts 193°
2026-05-06 01:13 33.98787 -86.94380 10989 ft 288 kts 177°
2026-05-06 01:13 33.96901 -86.93437 10992 ft 297 kts 158°
2026-05-06 01:13 33.95014 -86.92516 10938 ft 292 kts 169°
2026-05-06 01:14 33.91038 -86.91035 10187 ft 305 kts 166°
2026-05-06 01:14 33.89074 -86.90086 9770 ft 303 kts 163°
2026-05-06 01:14 33.87132 -86.89152 9316 ft 299 kts 165°
2026-05-06 01:15 33.85196 -86.88284 8872 ft 295 kts 166°
2026-05-06 01:15 33.83281 -86.87430 8420 ft 291 kts 165°
2026-05-06 01:15 33.81428 -86.86581 7991 ft 287 kts 165°
2026-05-06 01:15 33.79576 -86.85736 7557 ft 283 kts 165°
2026-05-06 01:16 33.77757 -86.84909 7126 ft 276 kts 166°
2026-05-06 01:16 33.75983 -86.84099 6696 ft 270 kts 163°
2026-05-06 01:16 33.74496 -86.82683 6237 ft 284 kts 130°
2026-05-06 01:16 33.73624 -86.80544 5865 ft 286 kts 117°
2026-05-06 01:17 33.72915 -86.78322 5496 ft 284 kts 116°
2026-05-06 01:17 33.72244 -86.76107 5134 ft 280 kts 115°
2026-05-06 01:17 33.71599 -86.73913 4770 ft 277 kts 115°
2026-05-06 01:17 33.70769 -86.71891 4395 ft 264 kts 135°
2026-05-06 01:18 33.69479 -86.70384 4023 ft 256 kts 144°
2026-05-06 01:18 33.68130 -86.69012 3659 ft 253 kts 145°
2026-05-06 01:18 33.66793 -86.67689 3388 ft 241 kts 146°
2026-05-06 01:18 33.65454 -86.66718 3327 ft 212 kts 163°
2026-05-06 01:19 33.64075 -86.66212 3073 ft 203 kts 170°
2026-05-06 01:19 33.62712 -86.65883 2813 ft 197 kts 173°
2026-05-06 01:19 33.61383 -86.65719 2635 ft 184 kts 191°
2026-05-06 01:19 33.60507 -86.66480 3116 ft 153 kts 224°
2026-05-06 01:20 33.59807 -86.67565 3222 ft 173 kts 233°
2026-05-06 01:20 33.59176 -86.68895 3188 ft 196 kts 236°
2026-05-06 01:20 33.58419 -86.70362 3207 ft 213 kts 233°
2026-05-06 01:20 33.57614 -86.71871 3433 ft 215 kts 227°
2026-05-06 01:21 33.56340 -86.72732 3674 ft 216 kts 192°
2026-05-06 01:21 33.54846 -86.72950 3910 ft 217 kts 184°
2026-05-06 01:21 33.53380 -86.72416 3976 ft 235 kts 147°
2026-05-06 01:21 33.52488 -86.70699 4016 ft 259 kts 108°
2026-05-06 01:22 33.52441 -86.68488 4037 ft 273 kts 89°
2026-05-06 01:22 33.52672 -86.66207 4039 ft 279 kts 87°
2026-05-06 01:22 33.53113 -86.63945 4033 ft 283 kts 68°
2026-05-06 01:22 33.54161 -86.61934 4036 ft 286 kts 57°
2026-05-06 01:23 33.55330 -86.60004 4034 ft 286 kts 56°
2026-05-06 01:23 33.56516 -86.58088 4009 ft 287 kts 56°
2026-05-06 01:23 33.57709 -86.56172 4004 ft 286 kts 56°
2026-05-06 01:23 33.58902 -86.54269 4012 ft 284 kts 56°
2026-05-06 01:24 33.60093 -86.52376 3820 ft 284 kts 55°
2026-05-06 01:24 33.61308 -86.50579 3574 ft 272 kts 44°
2026-05-06 01:24 33.62953 -86.49671 3329 ft 263 kts
2026-05-06 01:24 33.64644 -86.50082 3105 ft 236 kts 323°
2026-05-06 01:25 33.65785 -86.51283 3128 ft 203 kts 307°
2026-05-06 01:25 33.66743 -86.52505 3086 ft 199 kts 301°
2026-05-06 01:25 33.67163 -86.53995 3048 ft 186 kts 268°
2026-05-06 01:25 33.67248 -86.55536 3040 ft 185 kts 266°
2026-05-06 01:26 33.66994 -86.56981 3019 ft 175 kts 237°
2026-05-06 01:26 33.66331 -86.58205 3005 ft 175 kts 231°
2026-05-06 01:26 33.65664 -86.59413 3005 ft 172 kts 231°
2026-05-06 01:26 33.64989 -86.60592 3006 ft 171 kts 231°
2026-05-06 01:27 33.64317 -86.61763 3006 ft 170 kts 231°
2026-05-06 01:27 33.63639 -86.62942 2889 ft 174 kts 230°
2026-05-06 01:27 33.62938 -86.64157 2674 ft 179 kts 231°
2026-05-06 01:27 33.62231 -86.65390 2436 ft 175 kts 231°
2026-05-06 01:28 33.61565 -86.66554 2209 ft 165 kts 231°
2026-05-06 01:28 33.60929 -86.67663 2002 ft 159 kts 230°
2026-05-06 01:28 33.60311 -86.68745 1795 ft 157 kts 230°
2026-05-06 01:28 33.59717 -86.69786 1595 ft 140 kts 231°
2026-05-06 01:29 33.59190 -86.70705 1398 ft 129 kts 231°
2026-05-06 01:29 33.58692 -86.71573 1223 ft 124 kts 232°
2026-05-06 01:29 33.58221 -86.72396 1062 ft 116 kts 234°
2026-05-06 01:29 33.57767 -86.73182 900 ft 114 kts 233°
2026-05-06 01:30 33.57324 -86.73950 733 ft 112 kts 235°
2026-05-06 01:30 33.56895 -86.74702 645 ft 106 kts 236°
2026-05-06 01:30 33.56598 -86.75218 639 ft 45 kts 235°
2026-05-06 01:30 33.56439 -86.75492 639 ft 35 kts 235°
2026-05-06 01:31 33.56353 -86.75580 638 ft 13 kts 180°
2026-05-06 01:31 33.56315 -86.75504 637 ft 12 kts 62°
2026-05-06 01:31 33.56361 -86.75423 637 ft 12 kts 55°
2026-05-06 01:31 33.56413 -86.75333 635 ft 15 kts 55°
2026-05-06 01:32 33.56472 -86.75231 636 ft 15 kts 55°
2026-05-06 01:32 33.56529 -86.75131 637 ft 14 kts 56°
2026-05-06 01:32 33.56589 -86.75024 637 ft 16 kts 63°
2026-05-06 01:32 33.56573 -86.74927 638 ft 12 kts 135°
2026-05-06 01:33 33.56516 -86.74855 637 ft 12 kts 133°
2026-05-06 01:33 33.56439 -86.74760 636 ft 18 kts 134°
2026-05-06 01:33 33.56424 -86.74628 637 ft 14 kts 83°
2026-05-06 01:33 33.56450 -86.74584 638 ft 3 kts 68°
2026-05-06 01:34 33.56435 -86.74535 638 ft 11 kts 107°
2026-05-06 01:34 33.56441 -86.74436 636 ft 13 kts 84°
2026-05-06 01:34 33.56479 -86.74344 634 ft 14 kts 358°
2026-05-06 01:34 33.56555 -86.74312 636 ft 10 kts 351°
2026-05-06 01:35 33.56608 -86.74345 637 ft 3 kts 328°
2026-05-06 01:35 33.56612 -86.74348 638 ft 4 kts 329°
2026-05-06 01:35 33.56617 -86.74352 638 ft 0 kts 329°